Dewpoint
57 57 58 58 59 59 60 60 60 60 60 61 60 60 61 61 61 61 61 61 61 61 61 61 61 62 62 62 62 62 59 46 50 47 45 39 50 63 62 65 62 65 60 49 45 29 31 30 28 29 33 38 40 37 44 40 42 39 31 29 25 28 27 30 24 21 24 21 19 21 21 20 19 23 25 24 24 25 28 26 27 27 26 27 32 34 32 32
57 57 57 58 58 59 59 59 60 60 60 60 60 60 60 61 61 61 61 61 61 61 60 61 61 62 62 62 62 61 54 52 47 43 38 62 64 66 66 66 66 63 56 44 40 30 29 29 28 29 35 34 46 35 39 38 41 36 34 28 21 28 28 27 21 18 17 18 19 20 21 20 19 23 23 21 21 22 22 23 27 25 26 28 31 31 30 30
57 57 57 57 58 58 58 59 59 60 60 60 60 60 60 60 60 60 60 61 61 61 60 61 61 61 62 62 62 60 54 51 49 42 38 66 65 66 65 67 65 64 45 44 42 32 29 27 27 27 35 32 37 34 39 37 37 37 32 30 31 33 28 24 20 20 21 21 20 21 20 20 20 22 23 22 20 23 21 21 24 25 25 26 29 29 29 29
57 57 57 57 57 57 58 58 58 59 59 60 60 59 59 59 60 60 60 60 60 60 60 61 61 61 61 60 63 57 56 51 40 41 42 63 64 64 65 66 67 64 48 45 45 37 31 29 27 26 32 31 30 40 36 37 30 33 32 30 28 29 22 20 20 22 23 22 21 21 21 20 20 20 21 21 19 19 20 21 21 22 24 24 27 28 28 28
57 57 57 57 57 57 57 57 58 58 58 59 59 59 59 59 60 60 60 60 60 60 60 60 61 61 61 62 61 57 50 15 25 46 56 63 64 64 63 65 64 57 48 50 36 30 29 27 26 29 30 22 30 33 33 34 30 34 27 26 27 26 24 23 21 24 22 23 21 21 19 17 22 21 20 20 17 17 18 19 21 21 23 24 26 27 28 27
56 56 57 56 57 57 57 57 57 58 58 58 59 59 59 59 59 60 60 61 61 60 60 60 61 61 61 61 53 55 24 -1 36 48 57 64 64 64 65 63 64 57 51 42 32 30 27 27 27 30 23 21 22 24 26 31 30 25 25 24 25 26 24 23 21 24 21 21 20 19 20 21 20 19 20 19 18 18 21 20 20 21 22 24 26 26 26 27
57 57 57 57 56 56 57 57 57 57 58 58 58 59 59 59 59 59 59 60 60 60 60 60 61 61 60 61 53 51 36 31 47 52 58 59 63 64 63 63 59 50 41 30 29 27 30 27 27 28 27 27 23 23 23 25 30 27 25 21 20 21 19 19 19 25 20 20 19 20 22 20 20 18 20 19 19 19 20 21 21 22 23 24 25 25 25 26
58 57 57 57 57 57 56 56 57 57 57 58 58 58 59 59 59 59 59 60 60 60 60 60 61 61 59 55 52 47 41 34 39 51 58 61 62 62 61 52 48 45 35 29 25 24 28 26 25 29 24 22 24 24 25 27 26 26 25 23 21 20 20 22 22 22 21 21 20 23 21 19 19 19 20 18 19 19 20 20 20 20 23 24 25 25 25 25
58 57 57 57 57 57 56 56 57 57 57 57 58 58 58 59 59 59 59 59 60 60 60 60 61 61 60 51 41 34 28 45 41 46 55 57 54 52 50 39 42 35 32 30 27 26 28 26 26 26 22 25 27 24 26 22 20 22 23 22 20 20 20 20 20 20 21 21 21 20 19 19 20 23 19 19 19 20 20 20 20 20 20 23 24 25 24 25
57 57 57 57 57 57 56 56 56 56 57 57 57 58 58 59 59 59 59 60 59 60 60 61 61 60 53 42 39 26 32 41 42 43 48 51 47 45 45 44 37 35 28 26 27 25 25 26 29 34 33 24 26 23 28 24 23 22 22 22 20 20 20 21 20 20 21 21 21 19 19 19 21 21 18 19 20 21 20 20 20 20 19 20 23 25 24 24
57 57 57 57 57 57 56 56 56 56 56 57 57 57 58 58 58 59 59 59 59 59 60 61 59 55 48 44 36 26 41 44 39 40 43 44 39 32 39 38 37 33 29 32 28 24 25 30 38 34 32 20 24 22 24 22 22 22 21 20 20 20 20 20 20 19 20 19 21 20 19 21 21 23 18 18 20 21 20 20 20 21 19 19 21 23 26 24
57 57 57 56 56 56 56 56 56 56 56 57 57 57 57 57 58 58 59 59 59 59 60 61 59 56 49 43 37 29 44 42 39 37 40 40 38 38 44 37 35 43 33 28 32 42 39 38 37 24 18 26 21 23 21 23 22 21 20 19 20 20 20 21 20 20 20 19 21 20 20 18 21 18 19 20 20 20 20 20 20 20 20 21 21 22 25 25
58 58 58 57 57 57 57 56 56 56 56 56 56 56 56 57 57 58 59 59 58 59 60 61 59 56 47 36 37 43 40 37 39 39 39 43 41 41 41 43 40 39 40 36 35 45 45 40 32 27 27 27 23 22 24 25 22 22 21 20 20 20 20 20 21 20 19 19 21 19 16 17 16 19 20 20 20 20 19 19 19 20 20 20 21 21 22 25
58 58 58 57 57 57 57 57 56 56 56 56 56 56 56 56 57 58 58 58 59 59 61 61 55 53 41 32 38 42 40 42 40 39 42 45 33 40 42 44 47 44 41 33 43 42 40 36 33 25 33 24 22 30 22 23 23 20 21 21 20 20 19 20 19 20 18 22 20 19 17 16 16 16 18 20 20 20 19 19 19 20 21 20 21 22 22 22
58 58 58 57 57 57 57 57 57 56 56 56 57 57 57 57 57 58 58 58 58 60 61 59 53 45 36 35 38 38 60 38 36 40 42 35 39 40 41 42 41 40 35 40 40 40 39 40 32 26 23 25 28 22 21 22 22 21 19 20 25 20 20 20 22 19 17 21 20 18 20 17 17 17 18 19 20 20 19 19 19 20 19 20 21 21 21 22
58 58 58 57 57 57 57 57 57 56 56 57 56 57 57 57 57 58 58 58 59 59 58 53 52 48 34 28 36 52 42 35 33 38 41 40 43 35 42 38 37 31 30 28 34 34 31 34 24 24 26 23 22 22 21 22 23 24 19 20 20 24 20 20 22 21 20 20 21 18 17 18 16 18 18 18 18 19 19 19 19 19 19 19 19 20 21 22
58 58 58 58 57 57 57 57 57 57 57 56 56 56 57 57 57 58 58 58 58 58 57 51 45 36 26 33 37 33 35 41 43 42 37 38 44 41 33 34 30 30 30 32 33 33 29 27 31 26 30 24 21 26 21 22 21 22 24 19 23 20 20 20 23 22 25 19 18 19 18 17 17 15 15 18 22 19 18 18 18 19 19 19 20 19 20 21
58 58 58 58 58 58 57 57 57 57 56 56 56 56 56 57 59 57 58 55 55 55 52 54 46 35 32 33 30 26 43 41 43 43 40 35 35 32 32 28 31 27 28 27 32 24 29 25 25 25 27 26 21 23 21 15 17 19 23 22 21 21 21 19 20 20 19 19 18 18 18 18 18 18 18 17 20 19 18 18 18 18 18 19 19 20 20 20
58 58 58 58 58 58 57 57 57 57 57 56 56 56 57 57 54 52 50 52 43 36 30 37 35 24 21 24 33 36 44 45 42 38 36 35 37 33 33 29 33 25 28 24 26 24 29 28 31 25 22 23 20 20 19 18 17 16 17 18 21 19 16 13 15 20 19 19 18 18 18 18 18 18 19 18 18 18 18 18 18 18 18 18 19 19 20 21
58 58 58 58 58 58 57 57 57 58 57 55 52 52 46 42 38 40 40 46 39 28 27 33 33 29 29 31 33 41 45 41 35 37 41 36 32 29 29 27 35 27 25 25 31 25 31 23 25 24 21 20 22 20 20 19 18 17 22 22 17 18 18 18 19 19 20 19 18 18 18 18 18 18 18 18 19 19 19 18 18 18 18 19 19 19 19 20
58 58 58 58 58 57 57 57 57 57 57 54 52 45 30 37 29 26 35 34 42 42 37 33 34 30 25 35 42 35 32 31 37 37 35 35 28 27 26 24 29 26 25 29 29 32 26 23 25 24 20 18 20 22 21 20 20 19 20 20 18 23 18 19 19 20 20 19 18 19 19 18 17 18 18 18 18 18 18 18 19 18 19 20 20 20 21 21
58 58 58 57 57 57 57 57 57 57 56 52 50 45 43 43 45 46 35 28 33 35 39 39 35 30 29 36 39 37 31 25 30 37 39 30 27 24 24 23 24 23 28 28 26 25 26 23 23 24 23 21 20 20 21 20 21 21 20 20 21 21 24 22 21 20 21 21 18 19 19 19 19 19 19 19 18 18 18 19 19 19 20 20 21 21 21 22
57 57 58 57 57 57 57 57 57 56 52 48 45 46 45 45 46 46 45 40 39 39 34 33 33 34 31 29 36 33 25 23 20 35 34 31 28 25 23 22 23 23 28 24 23 23 22 26 25 25 25 23 23 22 21 20 22 20 20 21 20 22 20 16 20 21 20 19 22 21 19 19 20 21 21 21 21 21 22 22 23 24 22 21 20 20 21 22
57 57 57 57 57 57 57 57 56 51 48 46 46 45 46 46 46 47 45 38 33 31 32 29 25 26 30 26 32 31 26 23 22 23 37 29 25 28 24 22 21 23 22 23 21 19 16 24 26 26 26 25 23 23 21 19 18 22 23 22 21 22 20 20 16 23 23 25 25 19 21 21 22 22 23 24 24 23 23 23 23 24 27 27 28 28 27 24
57 57 57 57 57 57 57 56 50 48 48 47 44 44 46 45 45 46 41 36 30 31 36 34 33 32 23 37 36 28 26 23 20 25 33 28 25 23 22 23 20 19 20 22 22 22 20 20 31 27 27 26 26 23 24 24 19 19 25 23 22 22 21 21 23 21 22 23 26 24 20 18 22 23 23 23 23 23 24 24 24 24 24 25 24 25 26 30
57 57 57 57 57 57 56 50 47 49 48 46 46 46 46 46 45 44 38 26 23 28 29 23 33 23 36 28 33 30 21 20 28 28 33 30 32 23 23 21 21 19 19 22 19 22 19 21 26 26 27 28 28 25 27 25 21 20 21 27 24 24 24 24 24 23 22 21 27 27 20 17 20 21 23 23 23 23 23 24 24 24 24 24 24 25 24 25
57 57 57 57 57 55 48 44 47 49 44 46 47 47 46 46 46 41 30 21 18 28 23 35 28 31 40 33 27 23 16 21 32 33 32 35 27 30 20 19 21 20 20 25 22 19 18 20 23 26 24 25 25 23 26 25 23 20 27 29 27 26 26 26 27 27 24 27 29 25 24 20 21 21 19 21 20 19 21 21 23 23 23 23 23 23 23 27
57 57 57 57 57 54 49 49 49 47 45 46 48 47 46 46 46 44 16 12 11 30 30 30 33 40 35 31 36 18 19 24 23 29 27 27 28 27 22 19 19 19 21 24 18 33 18 25 27 26 27 25 24 24 30 28 22 25 30 32 30 29 29 29 27 27 26 22 23 25 24 20 20 19 20 20 18 18 17 17 19 20 22 22 22 22 22 27
57 57 57 57 57 56 52 49 48 47 48 49 47 47 47 44 38 33 20 12 28 26 33 28 38 32 31 31 27 25 22 25 21 26 31 30 31 27 23 23 22 20 20 22 18 24 26 29 27 29 27 24 26 31 29 30 24 29 32 33 31 30 28 27 23 23 23 19 20 23 23 17 15 15 16 19 18 17 17 17 17 19 20 20 21 21 20 26
58 58 57 57 56 54 52 51 50 49 49 48 47 46 45 40 28 19 15 11 22 19 25 30 28 29 30 26 26 27 24 24 25 26 27 27 29 27 25 27 23 23 24 22 25 26 27 28 33 30 26 27 28 29 31 31 31 34 31 28 29 28 26 25 24 23 21 18 20 23 24 18 14 15 16 19 20 17 16 16 16 17 20 19 18 16 20 23
57 58 57 56 54 54 51 49 49 50 50 49 48 46 43 33 25 17 12 19 24 29 27 27 23 31 26 25 23 26 27 23 24 26 24 26 25 26 26 22 28 26 24 23 23 24 25 28 26 28 32 31 30 27 31 31 32 30 25 25 23 24 24 23 21 20 15 16 20 22 24 21 15 14 17 16 17 16 15 15 14 15 15 15 16 16 16 18
57 57 58 56 56 55 51 49 50 52 50 50 46 42 35 23 27 16 15 19 16 27 25 27 30 29 26 29 30 25 25 23 24 23 22 24 24 24 23 20 23 17 20 19 19 25 21 22 27 29 34 30 29 27 27 29 30 30 25 23 18 19 19 11 16 13 14 15 17 20 23 22 18 12 17 17 15 16 16 15 14 15 14 16 16 16 17 24
57 57 57 57 55 55 53 52 51 49 50 49 44 40 30 23 19 21 19 20 18 26 24 32 29 29 30 27 28 31 30 24 24 22 26 27 25 26 28 23 28 21 15 25 21 21 23 28 25 28 27 31 30 22 25 21 23 28 24 23 20 14 11 9 12 14 14 19 21 19 24 16 15 18 20 18 18 17 16 16 18 16 15 15 16 16 17 29
57 57 56 56 56 55 54 52 51 51 50 48 38 33 31 22 23 32 22 19 20 28 32 34 30 30 30 24 30 30 25 31 24 23 26 25 24 22 25 26 26 25 26 25 16 24 16 18 23 28 23 31 27 23 22 21 24 26 26 24 23 20 11 8 12 10 11 13 18 20 18 19 11 15 23 19 19 18 17 17 18 18 17 16 16 17 28 33
57 57 57 56 55 56 53 52 52 51 50 47 43 34 25 25 28 21 22 23 27 22 21 27 29 27 27 28 31 31 26 25 26 25 24 25 23 24 25 24 26 25 27 21 26 23 21 18 21 29 30 31 27 28 28 30 25 26 26 26 20 21 20 14 16 15 10 15 16 15 19 19 16 17 22 23 22 19 17 18 18 17 17 18 18 20 31 33
55 55 57 54 53 55 54 53 52 51 49 44 37 30 28 30 27 25 27 27 25 25 22 24 32 27 27 26 29 31 33 25 29 25 24 25 26 25 27 27 25 24 24 20 25 22 22 20 30 29 30 28 27 29 27 28 19 25 24 21 22 25 21 20 20 18 14 12 15 13 17 18 19 12 15 18 18 19 17 14 15 15 15 17 18 20 33 33
54 55 52 53 53 55 53 52 52 50 48 43 35 30 35 33 31 33 30 27 25 26 28 21 26 24 24 24 26 31 30 29 29 26 24 28 24 27 26 28 29 26 24 22 22 26 20 17 30 28 27 28 26 28 29 29 27 23 21 23 27 29 27 22 16 17 12 12 14 12 12 11 11 12 17 16 16 17 19 16 13 15 16 15 18 24 34 34
53 52 52 52 53 54 53 52 51 49 45 40 33 35 37 34 33 30 31 31 30 34 29 25 26 30 26 24 23 29 34 28 29 27 27 27 23 31 28 26 28 26 24 25 20 28 28 18 20 29 29 29 29 27 26 28 29 24 25 29 23 19 17 21 20 16 15 14 14 11 9 9 10 9 9 8 13 15 16 18 16 13 13 15 16 22 32 33
53 51 48 51 54 54 52 52 51 47 41 36 33 34 38 38 36 35 34 33 37 34 29 30 29 31 30 25 31 26 30 26 30 29 26 28 24 30 26 26 27 27 25 25 23 24 26 21 23 29 29 28 25 27 24 24 28 28 28 25 26 22 20 18 23 21 18 14 14 15 12 11 16 10 8 9 8 14 15 16 17 16 14 13 14 19 25 30
50 47 46 52 54 53 52 51 48 44 39 33 34 35 39 37 38 37 37 36 35 34 32 30 31 28 32 29 31 28 30 29 29 28 30 30 27 28 26 30 28 32 27 26 26 29 24 23 18 25 28 28 21 24 24 25 25 24 24 24 22 19 22 24 21 20 16 15 14 13 12 14 17 16 11 12 13 15 15 16 18 17 16 15 15 18 22 26
50 47 46 52 52 52 51 48 43 38 37 35 37 36 37 36 39 40 38 38 38 37 33 34 36 33 33 34 34 36 35 36 35 34 34 35 31 30 29 31 33 32 33 32 29 29 24 21 21 22 21 22 22 28 26 27 26 25 25 24 23 22 20 18 18 23 20 17 16 13 13 17 16 18 15 17 16 18 19 17 17 17 17 16 18 18 19 24
47 41 45 52 52 50 47 40 39 40 35 35 36 37 36 38 37 37 38 40 39 36 38 33 35 35 36 35 36 36 35 34 34 33 33 32 32 30 30 33 34 33 32 27 28 33 28 28 25 24 23 22 25 28 29 28 27 27 25 23 26 23 21 20 16 19 19 19 20 18 16 16 17 16 20 19 19 17 17 18 17 17 18 16 18 19 22 24
43 41 50 51 51 49 46 40 40 38 36 37 39 37 37 38 37 37 36 37 36 36 35 33 32 32 34 35 35 35 35 34 35 34 34 32 31 31 32 29 32 35 33 30 32 31 33 27 26 26 26 31 31 30 29 28 26 25 25 27 25 21 22 20 20 18 19 19 18 18 17 18 21 19 18 17 17 17 17 17 17 17 15 17 18 21 23 25
43 44 46 51 51 50 44 35 35 36 38 38 38 37 38 37 37 36 36 36 36 36 35 35 35 33 33 35 34 34 36 33 35 35 34 34 33 33 32 30 30 32 28 29 26 33 27 29 31 26 26 27 29 32 29 25 24 23 22 24 26 24 24 24 24 26 19 20 19 17 14 16 20 21 22 19 16 15 15 15 17 17 17 22 22 23 26 26
43 45 46 47 50 48 41 43 40 37 38 37 37 37 37 37 38 36 36 35 37 36 34 34 34 35 34 35 34 34 35 35 32 36 35 35 35 36 35 33 32 29 28 35 34 35 28 29 29 25 23 21 20 21 22 23 23 22 24 23 25 25 24 22 20 22 19 20 20 18 17 17 16 17 16 16 16 15 15 14 15 18 21 19 22 25 24 25
39 32 42 43 46 45 44 45 42 40 38 36 36 37 38 36 38 38 38 36 36 36 35 34 36 36 34 32 32 33 33 35 34 31 33 31 33 32 34 33 32 31 32 36 36 32 28 32 31 30 28 25 25 27 27 28 21 18 21 23 23 25 26 26 24 22 20 21 21 20 20 19 19 19 19 19 19 18 18 17 16 15 16 19 21 23 23 23
40 35 36 35 42 43 41 43 42 42 38 39 35 37 35 36 37 36 39 36 37 36 36 36 35 33 33 33 32 31 32 32 33 33 32 31 31 32 35 34 33 32 35 37 37 32 29 27 30 31 31 31 31 30 29 28 24 24 23 22 24 24 24 25 23 21 23 23 20 23 23 23 22 21 20 20 19 19 19 19 18 17 18 20 20 20 26 22
33 34 38 42 37 33 37 37 41 40 41 41 37 38 35 35 35 34 37 37 37 38 36 37 36 36 34 33 33 31 32 32 32 30 31 31 30 31 32 34 33 34 35 34 36 32 28 26 29 30 30 31 31 30 30 28 27 26 25 24 23 24 24 23 24 24 23 21 19 20 22 22 20 20 20 19 19 18 18 19 19 19 20 21 21 21 21 21
36 35 36 39 35 37 35 35 35 36 37 38 35 36 34 35 34 37 36 35 37 35 37 34 35 36 36 36 34 33 32 31 31 33 32 32 32 32 31 32 34 34 34 32 32 32 30 28 29 29 28 28 29 29 29 28 28 28 27 26 25 24 24 23 22 22 22 21 21 21 21 21 20 19 20 20 20 20 20 21 22 22 22 22 22 22 21 21
31 33 32 36 35 35 34 33 34 35 33 35 34 35 35 35 34 35 37 37 34 35 38 36 36 36 36 36 36 34 34 34 32 31 33 33 32 34 32 32 32 32 32 30 29 29 31 27 29 28 27 27 28 29 30 29 29 27 28 28 28 27 26 26 24 23 23 22 22 22 22 21 22 21 21 22 22 22 22 22 22 22 23 23 23 23 23 23
38 40 38 33 29 30 31 31 31 33 32 34 33 33 35 35 34 36 35 37 36 36 36 36 38 37 37 37 37 37 38 37 37 37 38 37 33 36 33 32 36 33 30 31 30 29 27 25 28 28 25 25 28 28 28 29 29 28 28 28 28 27 26 26 26 25 24 23 23 23 23 22 22 23 23 23 23 23 23 23 23 24 23 24 24 24 24 24
36 37 38 36 28 31 29 30 29 30 27 30 32 33 34 34 36 36 33 37 38 38 38 35 35 34 34 35 34 36 36 35 37 39 39 39 40 39 40 39 38 36 31 30 31 29 28 26 25 26 25 25 29 29 28 28 28 26 27 28 29 28 28 27 27 27 26 25 24 23 23 23 23 24 23 24 24 24 24 24 24 25 25 25 25 25 25 24